Regional Weather Roundup
Issued by NWS

Home | Current Version | Previous Version | Graphics & Text | Print | Product List | Glossary On
Versions: 1 2 3 4 5 6 7 8 9 10 11 12 13 14 15 16 17 18 19 20 21 22 23 24 25 26 27 28 29 30 31 32 33 34 35 36 37 38 39 40 41 42 43 44 45 46 47 48 49 50
000
ASUS45 KTFX 020319
RWRMT
MONTANA HOURLY WEATHER ROUNDUP
NATIONAL WEATHER SERVICE GREAT FALLS MT
919 PM MDT MON SEP 1 2014

NOTE: "FAIR" INDICATES FEW OR NO CLOUDS BELOW 12000 FEET WITH NO
SIGNIFICANT WEATHER AND/OR OBSTRUCTIONS TO VISIBILITY.

* THESE STATIONS ARE NOT UNDER NWS QUALITY CONTROL. THEY DO NOT
   REPORT WEATHER SUCH AS PRECIPITATION OR FOG.

MTZ001>007-043-020400-
WEST OF THE DIVIDE
CITY           SKY/WX    TMP DP  RH WIND       PRES   REMARKS
KALISPELL      CLOUDY    61  43  52 SW6       29.98R
MISSOULA       CLEAR     61  39  44 N7        30.01R
BUTTE          CLEAR     57  34  42 NW5       30.05R
MULLAN PASS    CLEAR     48  36  63 W6        30.09S
* LINCOLN      N/A       59  35  41 SW5G15     N/A
* LOOKOUT PASS N/A       51  40  66 SE1        N/A
* POLSON       N/A       57  39  51 NW2        N/A
* RONAN APT    PTCLDY    57  43  60 N/A        N/A
* SEELEY LAKE  N/A       58  37  46 NW1G8      N/A
* THOMP F APT  CLEAR     52  35  52 NE3G9      N/A
$$

MTZ008-052>055-020400-
SOUTHWEST MONTANA
CITY           SKY/WX    TMP DP  RH WIND       PRES   REMARKS
BOZEMAN        CLEAR     55  43  64 S6        29.98R
DILLON         CLEAR     55  39  55 SE6       30.01R
W YELLOWSTONE  CLEAR     48  37  66 S5        30.14R
* THREE FORKS  CLEAR     61  61 100 N/A        N/A
* BOULDER HILL N/A       52  29  41 S1         N/A
* MONIDA PASS  N/A       54  32  43 S3         N/A
* RAYNOLDS PAS N/A       52  33  48 SE4G12     N/A
* WHITEHALL    N/A       61  38  43 NW6        N/A
* WISE RIVER   N/A       57  32  39 W7G16      N/A
$$

MTZ009>010-012-014-046-048-049-054-020400-
EAST SLOPES AND CENTRAL MONTANA
CITY           SKY/WX    TMP DP  RH WIND       PRES   REMARKS
CUT BANK       FAIR      57  37  47 W15       29.90R
GREAT FALLS    FAIR      54  37  53 SW13      29.91R
HELENA         PTCLDY    64  36  35 CALM      29.95R
MALMSTROM AFB  CLEAR     63  36  37 W5        29.92R
* CONRAD       PTCLDY    57  39  51 N/A        N/A
* EAST GLACIER N/A       54  37  53 W18G23     N/A
* MONARCH      N/A       53  26  35 W12        N/A
* PENDROY      N/A       53  34  49 NW10       N/A
* ROGERS PASS  N/A       56  33  42 E8G13      N/A
* SAINT MARY   N/A       56  37  49 SW11G26    N/A
* SWEET GRASS  N/A       59  37  44 W14G24     N/A
* WHITE SULPH  N/A       54  34  47 SW2G8      N/A
$$

MTZ011-013-016-021-035-040-045-047-050-051-020400-
NORTH CENTRAL MONTANA
CITY           SKY/WX    TMP DP  RH WIND       PRES   REMARKS
HAVRE          PTCLDY    63  37  38 W13       29.82R
LEWISTOWN      FAIR      55  39  55 SW9       29.94R
* CHINOOK      PTCLDY    61  39  44 S5        29.81R
* FORT BENTON  CLEAR     61  37  41 W7        29.88R
* CHESTER      N/A       62  37  40 SW9G16     N/A
* DENTON       N/A       56  34  44 SW9        N/A
* GEYSER       N/A       52  34  50 SW9        N/A
* JUDITH GAP   N/A       56  35  45 NW11       N/A
* LOMA         N/A       66  38  36 W12G17     N/A
$$

MTZ017>020-022>027-061-062-020400-
NORTHEAST MONTANA
CITY           SKY/WX    TMP DP  RH WIND       PRES   REMARKS
GLASGOW        MOCLDY    61  50  67 S7        29.82R
GLENDIVE       CLEAR     54  46  74 N7        29.90R
JORDAN         PTCLDY    61  45  56 W5        29.86S
SIDNEY         PTCLDY   N/A N/A N/A CALM      29.86S
WOLF POINT     PTCLDY    55  48  77 S5        29.83S
* BEAVER HILL  N/A       57  45  64 SW7        N/A
* CIRCLE       N/A       59  48  67 N/A        N/A
* LINDSAY DVD  N/A       53  45  74 NW6        N/A
* NAVAJO       N/A       55  44  67 SW9        N/A
$$

MTZ028>042-056>058-020400-
SOUTHCENTRAL AND SOUTHEAST MONTANA
CITY           SKY/WX    TMP DP  RH WIND       PRES   REMARKS
BAKER          CLEAR     55  46  72 CALM      29.92R
BILLINGS       FAIR      68  34  28 CALM      29.94S
LIVINGSTON     FAIR      61  37  41 W9        29.96S
MILES CITY     CLEAR     64  39  40 NW5       29.90R
* LAUREL APT   CLEAR     61  36  39 N/A        N/A
* ROUNDUP APT  CLEAR     59  37  44 N/A        N/A
* ALZADA       N/A       55  44  67 SE2        N/A
* HYSHAM       N/A       61  33  35 S2         N/A
* LAME DEER    N/A       59  37  44 N/A        N/A
* REED POINT   N/A       63  34  34 S2G8       N/A
* ROSCOE HILL  N/A       55  33  43 SE9        N/A
$$

REGIONAL REPORTS...DAKOTAS
CITY           SKY/WX    TMP DP  RH WIND       PRES   REMARKS
WILLISTON      CLOUDY    63  46  54 SW8       29.83R
DICKINSON      CLEAR     52  46  80 S8        29.87S
BEACH          N/A       50  48  93 SW7       29.90R
CROSBY         CLOUDY    54  52  93 SW9       29.82R
TIOGA          FAIR      50  50 100 W6        29.87R
WATFORD CITY   CLOUDY    55  48  77 W5        29.84R
BISMARCK       PTCLDY    59  54  84 SW5       29.87R
GRAND FORKS    FAIR      59  54  84 W3        29.76R
FARGO          CLEAR     59  55  87 S5        29.80R
BUFFALO SD     CLEAR     61  45  56 SW5       29.88R
RAPID CITY     CLEAR     52  48  86 W3        29.99R
$$

REGIONAL REPORTS...WYOMING/IDAHO/WASHINGTON
CITY           SKY/WX    TMP DP  RH WIND       PRES   REMARKS
GILLETTE       CLEAR     52  45  77 SW10      30.03R
SHERIDAN       CLEAR     50  45  83 S3        30.00R
CODY           PTCLDY   N/A N/A N/A N/A        N/A
YELLOWSTONE LA CLEAR     39  37  93 CALM      30.24R
SALMON         CLEAR     57  43  60 S6        29.97R
MULLAN PASS    CLEAR     48  36  63 W6        30.09S
SAND POINT     MOCLDY    59  50  72 CALM      29.94S
SPOKANE        FAIR      66  39  37 SW6       29.96S
$$

REGIONAL REPORTS...ALBERTA
CITY           SKY/WX    TMP DP  RH WIND       PRES   REMARKS
CALGARY        MOCLDY    61  34  36 W15G24    29.80R
LETHBRIDGE     PTCLDY    61  39  44 W23G33    29.82R
MEDICINE HAT   MOCLDY    64  45  50 W10       29.75R
EDMONTON       FOG       45  45 100 W7        29.76R
WATERTON GATE  N/A       57  36  46 SW18G29    N/A
CARDSTON       N/A       57  39  51 W9G17      N/A
$$

REGIONAL REPORTS...SASKATCHEWAN
CITY           SKY/WX    TMP DP  RH WIND       PRES   REMARKS
SWIFT CURRENT  MOCLDY    54  45  72 S8        29.75S
REGINA         FAIR      54  48  80 S9        29.76S
VAL MARIE      N/A       55  48  77 SW2        N/A
ASSINIBOIA     N/A       57  46  67 S7         N/A
CORONACH       N/A       54  46  74 S7         N/A

$$



USA.gov is the U.S. government's official web portal to all federal, state and local government web resources and services.